Gunnison, CO

6:16 AM MST on December 13, 2019 (GMT -0700)
Gunnison County

Weather History for KGUC - October, 2019

Change the Weather History Date:

Wednesday, October 23, 2019

  Actual Average Record
Temperature  
Mean Temperature 36 °F -  
Max Temperature 54 °F 52 °F 71 °F (2003)
Min Temperature 18 °F 21 °F 6 °F (2008)
Degree Days  
Heating Degree Days 29    
Moisture  
Dew Point 17 °F    
Average Humidity 56    
Maximum Humidity 88    
Minimum Humidity 15    
Precipitation  
Precipitation 0.00 in - - ()
Sea Level Pressure  
Sea Level Pressure 30.14 in    
Wind  
Wind Speed 5 mph ()    
Max Wind Speed 21 mph    
Max Gust Speed 36 mph    
Visibility 9.9 miles    
Events Snow    
Averages and records for this station are not official NWS values.
T = Trace of Precipitation, MM = Missing Value Source: Averaged Metar Reports

Daily Weather History Graph

Daily Weather History Graph

Search for Another Location

Airport or City:

Astronomy

Oct. 23, 2019 Rise Set
Actual Time 7:24 AM MDT 6:18 PM MDT
Civil Twilight 6:57 AM MDT 6:45 PM MDT
Nautical Twilight 6:26 AM MDT 7:16 PM MDT
Astronomical Twilight 5:55 AM MDT 7:47 PM MDT
Moon 1:51 AM MDT (10/23) 4:06 PM MDT (10/23)
Length of Visible Light 11h 48m
Length of Day
10h 54m
Waning Crescent, 26% of the Moon is Illuminated
Oct 23
Waning Crescent
Oct 27
New
Nov 4
First Quarter
Nov 12
Full
Nov 19
Last Quarter

Hourly Weather History & Observations

Time (MDT) Temp. Windchill Dew Point Humidity Pressure Visibility Wind Dir Wind Speed Gust Speed Precip Events Conditions
12:56 AM 30.9 °F 24.3 °F 23.0 °F 72% 30.19 in 10.0 mi North 6.9 mph - N/A   Clear
1:56 AM 28.0 °F - 21.9 °F 78% 30.20 in 10.0 mi Calm Calm - N/A   Clear
2:56 AM 24.1 °F 19.7 °F 19.0 °F 81% 30.21 in 10.0 mi NE 3.5 mph - N/A   Clear
3:56 AM 24.1 °F - 19.9 °F 84% 30.19 in 10.0 mi Calm Calm - N/A   Clear
4:56 AM 18.0 °F 12.7 °F 15.1 °F 88% 30.24 in 10.0 mi NE 3.5 mph - N/A   Clear
5:56 AM 18.0 °F - 15.1 °F 88% 30.24 in 10.0 mi Calm Calm - N/A   Clear
6:56 AM 18.0 °F - 15.1 °F 88% 30.25 in 10.0 mi Calm Calm - N/A   Clear
7:56 AM 19.0 °F - 16.0 °F 88% 30.25 in 10.0 mi Calm Calm - N/A   Clear
8:56 AM 23.0 °F - 18.0 °F 81% 30.25 in 10.0 mi Calm Calm - N/A   Clear
9:56 AM 30.0 °F - 21.9 °F 72% 30.22 in 10.0 mi Calm Calm - N/A   Clear
10:56 AM 39.0 °F - 24.1 °F 55% 30.15 in 10.0 mi Calm Calm - N/A   Clear
11:56 AM 46.9 °F - 23.0 °F 39% 30.09 in 10.0 mi NNW 5.8 mph - N/A   Clear
12:56 PM 51.1 °F - 16.0 °F 25% 30.05 in 10.0 mi SW 12.7 mph - N/A   Scattered Clouds
1:56 PM 52.0 °F - 15.1 °F 23% 30.03 in 10.0 mi WSW 13.8 mph 27.6 mph N/A   Partly Cloudy
2:56 PM 54.0 °F - 15.1 °F 22% 30.00 in 10.0 mi WSW 20.7 mph 29.9 mph N/A   Clear
3:56 PM 54.0 °F - 12.9 °F 20% 29.99 in 10.0 mi West 19.6 mph 33.4 mph N/A   Clear
4:56 PM 51.1 °F - 3.9 °F 15% 30.04 in 10.0 mi West 20.7 mph 35.7 mph N/A   Clear
5:56 PM 48.0 °F - 8.1 °F 20% 30.07 in 10.0 mi WNW 15.0 mph 20.7 mph N/A   Clear
6:56 PM 45.0 °F 38.9 °F 9.0 °F 23% 30.10 in 10.0 mi WNW 12.7 mph - N/A   Clear
7:56 PM 39.0 °F 36.8 °F 9.0 °F 29% 30.14 in 10.0 mi South 3.5 mph - N/A   Clear
8:56 PM 34.0 °F - 9.0 °F 35% 30.12 in 10.0 mi Calm Calm - N/A   Clear
9:56 PM 39.0 °F 35.7 °F 18.0 °F 43% 30.09 in 10.0 mi East 4.6 mph - N/A   Overcast
10:56 PM 37.9 °F 32.1 °F 21.0 °F 51% 30.11 in 10.0 mi WSW 8.1 mph - N/A   Overcast
11:42 PM 30.2 °F 20.2 °F 26.6 °F 86% 30.17 in 8.0 mi WSW 12.7 mph 19.6 mph 0.00 in Snow Light Snow
11:56 PM 30.0 °F 21.7 °F 26.1 °F 85% 30.14 in 9.0 mi WSW 9.2 mph 20.7 mph 0.00 in   Overcast